Waarnemingen

Advertentie
Mijn weer
Chalons-Vatry Airport, Frankrijk (7166): temperatuur & dauwpunt: 11.07.2019 01:00:00 - 17.07.2019 01:00:00 (CEST)Chalons-Vatry Airport, Frankrijk (7166): windsnelheid & windstoten: 11.07.2019 01:00:00 - 17.07.2019 01:00:00 (CEST)Chalons-Vatry Airport, Frankrijk (7166): windrichting: 11.07.2019 01:00:00 - 17.07.2019 01:00:00 (CEST)Chalons-Vatry Airport, Frankrijk (7166): luchtdruk: 11.07.2019 01:00:00 - 17.07.2019 01:00:00 (CEST)Chalons-Vatry Airport, Frankrijk (7166): zicht: 11.07.2019 01:00:00 - 17.07.2019 01:00:00 (CEST)Chalons-Vatry Airport, Frankrijk (7166): neerslag: 11.07.2019 01:00:00 - 17.07.2019 01:00:00 (CEST)
Datum & Tijd tt [°C] td [°C] ff [km/u] ff [kn] fx [km/u] fx [kn] dd ppp [hPa] vv [km] rr [mm]
17.07.2019 01:00:00 15,0 11,0 13 7 - - N - 10 -
17.07.2019 00:00:00 15,8 10,3 11 6 18 10 N 1017,3 10 0,0
16.07.2019 23:00:00 17,4 10,0 9 5 16 9 N 1017,0 10 0,0
16.07.2019 22:00:00 18,7 10,0 11 6 16 9 N 1016,7 10 0,0
16.07.2019 21:00:00 22,5 10,0 9 5 17 9 N 1016,5 10 0,0
16.07.2019 20:00:00 23,2 8,1 9 5 19 10 N 1016,5 10 0,0
16.07.2019 19:00:00 24,0 7,6 15 8 22 12 N 1016,4 10 0,0
16.07.2019 18:00:00 24,0 7,2 11 6 29 16 N 1016,6 10 0,0
16.07.2019 17:00:00 24,2 6,9 11 6 29 16 N 1016,9 10 0,0
16.07.2019 16:00:00 23,5 6,3 11 6 25 13 N 1017,2 10 0,0
16.07.2019 15:00:00 22,7 8,4 15 8 27 14 N 1017,6 10 0,0
16.07.2019 14:00:00 21,9 8,7 12 6 27 15 N 1018,0 13 0,0
16.07.2019 13:00:00 21,3 10,1 10 5 31 17 NO 1018,3 12 0,0
16.07.2019 12:00:00 19,7 10,4 10 5 27 14 N 1018,7 12 0,0
16.07.2019 11:00:00 18,3 10,4 11 6 24 13 NNO 1019,1 10 0,0
16.07.2019 10:00:00 16,1 10,6 12 6 21 11 N 1019,4 10 0,0
16.07.2019 09:00:00 14,3 10,5 13 7 19 10 NNO 1019,6 9 0,0
16.07.2019 08:00:00 11,5 9,4 13 7 16 9 NNO 1019,7 10 0,0
16.07.2019 07:00:00 9,6 8,4 13 7 15 8 NNO 1019,8 11 0,0
16.07.2019 06:00:00 9,1 8,0 9 5 13 7 NO 1019,8 10 0,0
16.07.2019 05:00:00 9,2 7,8 13 7 14 8 NNO 1019,6 10 0,0
16.07.2019 04:00:00 9,9 8,3 10 6 17 9 NNO 1019,8 16 0,0
16.07.2019 03:00:00 10,3 8,6 15 8 18 10 NNO 1020,0 10 0,0
16.07.2019 02:00:00 10,8 8,7 14 8 19 10 NNO 1020,0 23 0,0
16.07.2019 01:00:00 12,4 9,4 16 9 22 12 N 1019,9 10 0,0
16.07.2019 00:00:00 13,6 9,8 18 10 24 13 N 1019,6 10 0,0
15.07.2019 23:00:00 15,0 10,2 16 9 24 13 N 1019,2 10 0,0
15.07.2019 22:00:00 16,8 9,9 13 7 22 12 NNO 1018,7 10 0,0
15.07.2019 21:00:00 19,9 10,0 16 9 31 17 N 1018,2 10 0,0
15.07.2019 20:00:00 21,6 9,8 24 13 37 20 N 1017,8 31 0,0
15.07.2019 19:00:00 22,5 9,6 28 15 41 22 N 1017,4 10 0,0
15.07.2019 18:00:00 23,1 9,8 22 12 43 23 N 1017,6 10 0,0
15.07.2019 17:00:00 23,6 9,9 24 13 42 23 N 1017,7 10 0,0
15.07.2019 16:00:00 23,1 10,2 24 13 42 23 N 1017,9 24 0,0
15.07.2019 15:00:00 22,4 9,9 22 12 46 25 N 1017,9 26 0,0
15.07.2019 14:00:00 21,3 10,5 22 12 39 21 N 1018,2 10 0,0
15.07.2019 13:00:00 19,9 10,3 18 10 34 18 N 1018,7 10 0,0
15.07.2019 12:00:00 19,0 10,3 21 11 35 19 NO 1018,9 10 0,0
15.07.2019 11:00:00 19,6 11,1 21 11 33 18 NNO 1018,8 10 0,0
15.07.2019 10:00:00 17,8 12,0 16 9 32 17 NNO 1019,1 10 0,0
15.07.2019 09:00:00 16,2 12,2 21 11 29 15 NO 1019,1 10 0,0
15.07.2019 08:00:00 14,4 11,9 16 8 22 12 NNO 1019,1 29 0,0
15.07.2019 07:00:00 13,9 11,9 12 6 22 12 N 1019,0 37 0,0
15.07.2019 06:00:00 13,5 11,5 16 9 26 14 N 1018,8 10 0,0
15.07.2019 05:00:00 14,2 11,5 13 7 21 12 N 1018,8 58 0,0
15.07.2019 04:00:00 14,4 11,7 15 8 24 13 NNO 1018,9 10 0,0
15.07.2019 03:00:00 13,9 11,6 13 7 20 11 NNO 1019,3 10 0,0
15.07.2019 02:00:00 12,2 10,3 14 8 22 12 NNO 1019,3 53 0,0
15.07.2019 01:00:00 12,7 10,2 16 9 24 13 NNO 1019,1 10 0,0
15.07.2019 00:00:00 13,2 10,0 16 9 23 12 NNO 1019,3 10 0,0
14.07.2019 23:00:00 14,8 10,0 16 9 27 15 NNO 1019,0 57 0,0
14.07.2019 22:00:00 16,3 9,7 18 10 37 20 N 1018,5 56 0,0
14.07.2019 21:00:00 18,6 9,4 28 15 47 25 NNO 1018,1 10 0,0
14.07.2019 20:00:00 20,0 9,3 31 17 48 26 N 1017,7 10 0,0
14.07.2019 19:00:00 20,6 9,2 31 17 48 26 NNO 1017,5 10 0,0
14.07.2019 18:00:00 20,8 10,0 29 16 53 28 NNO 1017,6 10 0,0
14.07.2019 17:00:00 20,3 10,1 31 17 48 26 NNO 1018,0 10 0,0
14.07.2019 16:00:00 19,8 10,5 31 17 52 28 N 1018,3 10 0,0
14.07.2019 15:00:00 20,1 11,0 31 17 46 25 N 1018,2 10 0,0
14.07.2019 14:00:00 19,4 11,4 32 17 48 26 NNO 1018,6 10 0,0
14.07.2019 13:00:00 18,5 11,3 31 17 53 29 N 1018,9 10 0,0
14.07.2019 12:00:00 18,9 11,7 31 17 45 24 N 1019,0 10 0,0
14.07.2019 11:00:00 18,0 12,2 26 14 37 20 N 1018,9 10 0,0
14.07.2019 10:00:00 17,0 12,5 24 13 40 21 NNO 1019,1 10 0,0
14.07.2019 09:00:00 15,0 12,9 22 12 31 17 N 1019,1 10 0,0
14.07.2019 08:00:00 13,8 12,4 16 9 23 12 N 1018,8 10 0,0
14.07.2019 07:00:00 12,1 11,5 11 6 16 9 N 1018,6 8 0,0
14.07.2019 06:00:00 11,9 11,1 9 5 16 9 N 1018,7 10 0,0
14.07.2019 05:00:00 12,0 11,1 11 6 23 12 N 1018,8 10 0,0
14.07.2019 04:00:00 13,1 11,8 15 8 24 13 N 1019,2 26 0,0
14.07.2019 03:00:00 13,7 12,1 17 9 26 14 N 1019,5 25 0,0
14.07.2019 02:00:00 13,9 11,8 17 9 23 13 N 1019,4 34 0,0
14.07.2019 01:00:00 14,2 11,5 14 7 22 12 N 1019,7 39 0,0
14.07.2019 00:00:00 14,5 11,1 15 8 19 10 N 1020,0 59 0,0
13.07.2019 23:00:00 16,1 11,7 11 6 32 17 N 1020,1 10 0,0
13.07.2019 22:00:00 18,3 12,3 23 13 34 18 N 1019,6 15 0,0
13.07.2019 21:00:00 21,0 12,7 21 11 35 19 N 1018,7 46 0,0
13.07.2019 20:00:00 22,2 12,4 16 9 34 19 NNW 1018,5 48 0,0
13.07.2019 19:00:00 21,8 12,4 22 12 32 18 NNW 1018,7 10 0,0
13.07.2019 18:00:00 22,8 12,4 21 11 32 18 N 1018,9 55 0,0
13.07.2019 17:00:00 22,4 12,1 19 10 37 20 N 1019,0 50 0,0
13.07.2019 16:00:00 22,6 11,3 21 11 35 19 NNW 1019,0 10 0,0
13.07.2019 15:00:00 21,7 11,4 16 9 29 16 NNW 1019,4 45 0,0
13.07.2019 14:00:00 21,4 11,7 13 7 25 14 NNO 1019,6 10 0,0
13.07.2019 13:00:00 21,1 12,2 15 8 27 14 N 1019,9 10 0,0
13.07.2019 12:00:00 20,4 12,4 15 8 27 14 N 1019,9 10 0,0
13.07.2019 11:00:00 18,5 13,1 11 6 29 15 N 1020,0 10 0,0
13.07.2019 10:00:00 17,6 13,5 16 9 26 14 N 1019,9 10 0,0
13.07.2019 09:00:00 17,4 13,9 15 8 25 13 NNO 1019,6 10 0,0
13.07.2019 08:00:00 15,2 13,4 13 7 16 9 N 1019,1 10 0,0
13.07.2019 07:00:00 11,9 10,8 3 1 14 8 ZZO 1018,7 14 0,0
13.07.2019 06:00:00 12,6 11,3 10 6 12 6 WNW 1018,6 19 0,0
13.07.2019 05:00:00 13,2 11,4 9 5 12 7 WNW 1018,0 29 0,0
13.07.2019 04:00:00 13,1 11,2 8 5 13 7 WNW 1018,0 38 0,0
13.07.2019 03:00:00 12,4 10,6 8 4 13 7 WNW 1017,8 10 0,0
13.07.2019 02:00:00 13,4 10,6 6 4 13 7 WNW 1017,8 56 0,0
13.07.2019 01:00:00 15,8 11,2 9 5 15 8 NW 1017,9 10 0,0
13.07.2019 00:00:00 16,5 11,8 5 3 13 7 N 1017,5 10 0,0
12.07.2019 23:00:00 17,6 12,9 11 6 18 10 N 1016,9 55 0,0
12.07.2019 22:00:00 19,8 12,5 15 8 32 17 N 1015,7 10 0,0
12.07.2019 21:00:00 22,2 12,2 22 12 42 23 NNW 1015,0 36 0,0
12.07.2019 20:00:00 23,3 12,6 29 16 42 23 NNW 1014,1 10 0,0
12.07.2019 19:00:00 24,6 11,2 29 16 49 26 WNW 1013,4 10 0,0
12.07.2019 18:00:00 25,1 10,5 27 15 47 26 WNW 1013,3 42 0,0
12.07.2019 17:00:00 26,6 10,3 26 14 45 24 W 1013,2 20 0,0
12.07.2019 16:00:00 26,1 10,3 26 14 41 22 WNW 1013,6 10 0,0
12.07.2019 15:00:00 25,6 10,6 26 14 42 23 W 1013,6 47 0,0
12.07.2019 14:00:00 23,4 12,4 21 11 35 19 W 1014,2 10 0,0
12.07.2019 13:00:00 22,6 12,8 18 10 37 20 W 1014,1 10 0,0
12.07.2019 12:00:00 22,1 13,2 16 9 37 20 WNW 1014,2 10 0,0
12.07.2019 11:00:00 22,4 14,0 23 13 38 21 W 1014,1 27 0,0
12.07.2019 10:00:00 20,2 13,6 16 9 27 15 W 1014,2 29 0,0
12.07.2019 09:00:00 18,6 12,6 18 10 26 14 W 1014,0 32 0,0
12.07.2019 08:00:00 16,8 11,9 11 6 18 10 W 1013,9 10 0,0
12.07.2019 07:00:00 15,6 11,4 10 6 20 11 W 1013,4 32 0,0
12.07.2019 06:00:00 16,5 11,2 8 4 19 10 W 1012,9 10 0,0
12.07.2019 05:00:00 17,1 11,6 14 8 20 11 NW 1012,9 45 0,0
12.07.2019 04:00:00 17,6 13,3 9 5 17 9 NNW 1012,4 10 0,0
12.07.2019 03:00:00 18,0 14,3 11 6 15 8 NNW 1012,3 10 0,0
12.07.2019 02:00:00 18,6 14,7 10 5 16 9 NNW 1012,3 35 0,0
12.07.2019 01:00:00 19,2 14,0 9 5 24 13 N 1012,4 42 0,0
12.07.2019 00:00:00 20,7 12,4 9 5 10 5 ZZO 1012,4 10 0,0
11.07.2019 23:00:00 21,4 12,8 7 4 9 5 ZO 1012,5 54 0,0
11.07.2019 22:00:00 23,4 12,1 3 2 4 2 Z 1012,4 0,1 0,0
11.07.2019 21:00:00 24,6 11,9 0 0 7 4 N 1012,2 19 0,0
11.07.2019 20:00:00 25,2 12,8 6 3 17 9 W 1012,2 58 0,0
11.07.2019 19:00:00 25,7 11,1 8 5 29 16 W 1012,3 60 0,0
11.07.2019 18:00:00 26,4 10,1 16 9 27 15 WZW 1012,4 10 0,0
11.07.2019 17:00:00 27,7 10,0 7 4 29 16 WZW 1012,5 20 0,0
11.07.2019 16:00:00 28,1 10,8 13 7 29 16 ZW 1012,9 47 0,0
11.07.2019 15:00:00 26,8 10,9 16 9 36 19 Z 1013,4 10 0,0
11.07.2019 14:00:00 25,8 10,8 15 8 30 16 ZW 1013,5 10 0,0
11.07.2019 13:00:00 24,5 9,6 13 7 27 15 ZW 1014,1 10 0,0
11.07.2019 12:00:00 21,4 13,8 8 4 22 12 WNW 1014,9 10 0,0
11.07.2019 11:00:00 19,3 15,0 16 8 28 15 NW 1014,8 30 0,2
11.07.2019 10:00:00 17,5 14,8 13 7 19 10 ZO 1014,5 10 0,0
11.07.2019 09:00:00 17,4 12,7 4 2 8 4 - 1015,2 10 0,0
11.07.2019 08:00:00 16,8 12,1 5 3 7 4 Z 1014,7 10 0,0
11.07.2019 07:00:00 15,5 11,1 5 3 6 3 ZZO 1014,9 10 0,0
11.07.2019 06:00:00 16,2 10,1 0 0 5 3 N 1014,9 45 0,0
11.07.2019 05:00:00 16,4 9,3 0 0 5 3 N 1015,0 10 0,0
11.07.2019 04:00:00 17,8 9,7 2 1 5 3 O 1015,1 10 0,0
11.07.2019 03:00:00 16,5 9,4 0 0 4 2 N 1015,7 42 0,0
11.07.2019 02:00:00 18,5 9,3 4 2 14 7 N 1015,9 10 0,0
11.07.2019 01:00:00 17,5 9,9 4 2 9 5 ZZO 1016,4 58 0,0

tt = temperatuur
td = dauwpunt
ff = windsnelheid
fx = windstoten
dd = windrichting
ppp = luchtdruk
vv = zicht
rr = neerslag

Weerstations in de omgeving